Location: Abraham Lincoln Continuation High School
(33.9711°N, 117.3662°W)
Time: 10:23:30
(UTC+00:00)

Lacrosse 5 - Pass Details

Date: 19 January 2021
Orbit: 715 x 724 km, 57.0° (Epoch: 03 March)

Event Time Altitude Azimuth Distance (km) Brightness Sun altitude
Rises 03:38:48 0° 325° (NW) 3,118 5.5 -31.2°
Reaches altitude 10° 03:41:15 10° 330° (NNW) 2,196 4.6 -31.7°
Enters shadow 03:42:17 16° 334° (NNW) 1,818 4.1 -31.9°
